GW6138 Weather Reports


time (UTC)temp
C
wind
direction
speed
KPH
gust
KPH
rain 1hr
cm
rain 24hr
cm
rain mn
cm
humidity
%
barometer
mb
20260906204507 32 0.0 0.0 0.00 0.00 0.00 40 1016.7
20260906204010 32 0.0 0.0 0.00 0.00 0.00 39 1016.7
20260906203512 32 0.0 0.0 0.00 0.00 0.00 40 1016.7
20260906203005 32 0.0 0.0 0.00 0.00 0.00 39 1017.1
20260906202507 32 0.0 0.0 0.00 0.00 0.00 41 1016.7
20260906202009 32 0.0 0.0 0.00 0.00 0.00 41 1017.1
20260906201511 32 0.0 0.0 0.00 0.00 0.00 40 1016.7
20260906201004 32 0.0 0.0 0.00 0.00 0.00 41 1017.1
20260906200505 32 0.0 0.0 0.00 0.00 0.00 41 1017.1
20260906200008 32 0.0 0.0 0.00 0.00 0.00 40 1017.1
20260906195510 32 0.0 0.0 0.00 0.00 0.00 42 1017.1
20260906195012 32 0.0 0.0 0.00 0.00 0.00 42 1017.5
20260906194506 32 0.0 0.0 0.00 0.00 0.00 42 1017.5
20260906194007 32 0.0 0.0 0.00 0.00 0.00 42 1017.5
20260906193510 32 0.0 0.0 0.00 0.00 0.00 42 1017.5
20260906193012 31 0.0 0.0 0.00 0.00 0.00 43 1017.5
20260906192504 31 0.0 0.0 0.00 0.00 0.00 43 1017.5
20260906192006 31 0.0 0.0 0.00 0.00 0.00 43 1017.5
20260906191509 31 0.0 0.0 0.00 0.00 0.00 44 1017.9
20260906191011 31 0.0 0.0 0.00 0.00 0.00 44 1017.9
20260906190513 31 0.0 0.0 0.00 0.00 0.00 44 1017.5
20260906190006 31 0.0 0.0 0.00 0.00 0.00 44 1017.5
20260906185507 31 0.0 0.0 0.00 0.00 0.00 44 1018.3
20260906185010 31 0.0 0.0 0.00 0.00 0.00 44 1017.9
20260906184512 31 0.0 0.0 0.00 0.00 0.00 44 1018.3
20260906184005 31 0.0 0.0 0.00 0.00 0.00 45 1017.9
20260906183507 31 0.0 0.0 0.00 0.00 0.00 45 1018.3
20260906183010 30 0.0 0.0 0.00 0.00 0.00 46 1018.3
20260906182511 30 0.0 0.0 0.00 0.00 0.00 47 1018.7
20260906182004 30 0.0 0.0 0.00 0.00 0.00 46 1018.7
20260906181507 30 0.0 0.0 0.00 0.00 0.00 47 1018.7
20260906181008 30 0.0 0.0 0.00 0.00 0.00 47 1018.7
20260906180511 30 0.0 0.0 0.00 0.00 0.00 49 1019.0
20260906180013 30 0.0 0.0 0.00 0.00 0.00 50 1019.0
20260906175505 30 0.0 0.0 0.00 0.00 0.00 50 1019.0
20260906175007 29 0.0 0.0 0.00 0.00 0.00 49 1019.0
20260906174511 30 0.0 0.0 0.00 0.00 0.00 48 1019.0
20260906174012 29 0.0 0.0 0.00 0.00 0.00 49 1019.4
20260906173505 29 0.0 0.0 0.00 0.00 0.00 49 1019.4
20260906173006 29 0.0 0.0 0.00 0.00 0.00 50 1019.4
20260906172510 29 0.0 0.0 0.00 0.00 0.00 50 1019.4
20260906172011 29 0.0 0.0 0.00 0.00 0.00 51 1019.4
20260906171513 29 0.0 0.0 0.00 0.00 0.00 50 1019.4
20260906171006 28 0.0 0.0 0.00 0.00 0.00 51 1019.4
20260906170508 28 0.0 0.0 0.00 0.00 0.00 52 1019.4
20260906170010 28 0.0 0.0 0.00 0.00 0.00 53 1019.8
20260906165513 28 0.0 0.0 0.00 0.00 0.00 53 1019.4
20260906165005 28 0.0 0.0 0.00 0.00 0.00 52 1019.8
20260906164507 28 0.0 0.0 0.00 0.00 0.00 53 1019.4
20260906164010 28 0.0 0.0 0.00 0.00 0.00 53 1019.8
20260906163512 27 0.0 0.0 0.00 0.00 0.00 55 1019.8
20260906163005 27 0.0 0.0 0.00 0.00 0.00 56 1019.8
20260906162506 27 0.0 0.0 0.00 0.00 0.00 57 1019.8
20260906162008 27 0.0 0.0 0.00 0.00 0.00 58 1019.8
20260906161511 26 0.0 0.0 0.00 0.00 0.00 61 1019.8
20260906161013 26 0.0 0.0 0.00 0.00 0.00 64 1019.8
20260906160506 25 0.0 0.0 0.00 0.00 0.00 66 1019.8
20260906160007 25 0.0 0.0 0.00 0.00 0.00 68 1019.4
20260906155511 25 0.0 0.0 0.00 0.00 0.00 68 1019.8
20260906155012 25 0.0 0.0 0.00 0.00 0.00 66 1019.8
20260906154505 25 0.0 0.0 0.00 0.00 0.00 67 1019.4
20260906154007 25 0.0 0.0 0.00 0.00 0.00 66 1019.4
20260906153509 25 0.0 0.0 0.00 0.00 0.00 68 1019.8
20260906153012 25 0.0 0.0 0.00 0.00 0.00 69 1019.8
20260906152504 25 0.0 0.0 0.00 0.00 0.00 69 1019.8
20260906152006 25 0.0 0.0 0.00 0.00 0.00 69 1019.4
20260906151508 24 0.0 0.0 0.00 0.00 0.00 70 1019.4
20260906151011 23 0.0 0.0 0.00 0.00 0.00 71 1019.4
20260906150513 23 0.0 0.0 0.00 0.00 0.00 72 1019.8
20260906150006 23 0.0 0.0 0.00 0.00 0.00 72 1019.4
20260906145507 23 0.0 0.0 0.00 0.00 0.00 72 1019.4
20260906145010 23 0.0 0.0 0.00 0.00 0.00 73 1019.8
20260906144512 23 0.0 0.0 0.00 0.00 0.00 74 1019.8
20260906144004 22 0.0 0.0 0.00 0.00 0.00 75 1019.8
20260906143507 22 0.0 0.0 0.00 0.00 0.00 76 1019.8
20260906143008 22 0.0 0.0 0.00 0.00 0.00 77 1019.8
20260906142511 22 0.0 0.0 0.00 0.00 0.00 78 1019.8
20260906142013 22 0.0 0.0 0.00 0.00 0.00 79 1019.4
20260906141506 21 0.0 0.0 0.00 0.00 0.00 80 1019.8
20260906141008 21 0.0 0.0 0.00 0.00 0.00 81 1019.4
20260906140511 21 0.0 0.0 0.00 0.00 0.00 83 1019.4
20260906140013 21 0.0 0.0 0.00 0.00 0.00 84 1019.4
20260906135505 20 0.0 0.0 0.00 0.00 0.00 86 1019.4
20260906135007 20 0.0 0.0 0.00 0.00 0.00 87 1019.4
20260906134510 20 0.0 0.0 0.00 0.00 0.00 87 1019.4
20260906134013 20 0.0 0.0 0.00 0.00 0.00 89 1019.4
20260906133505 19 0.0 0.0 0.00 0.00 0.00 91 1019.4
20260906133007 19 0.0 0.0 0.00 0.00 0.00 91 1019.4
20260906132508 19 0.0 0.0 0.00 0.00 0.00 91 1019.4
20260906132011 18 0.0 0.0 0.00 0.00 0.00 93 1019.4
20260906131513 18 0.0 0.0 0.00 0.00 0.00 95 1019.4
20260906131006 18 0.0 0.0 0.00 0.00 0.00 95 1019.4
20260906130508 18 0.0 0.0 0.00 0.00 0.00 96 1019.4
20260906130011 17 0.0 0.0 0.00 0.00 0.00 96 1019.4
20260906125512 17 0.0 0.0 0.00 0.00 0.00 96 1019.4
20260906125005 17 0.0 0.0 0.00 0.00 0.00 96 1019.4
20260906124507 17 0.0 0.0 0.00 0.00 0.00 96 1019.4
20260906124010 17 0.0 0.0 0.00 0.00 0.00 95 1019.4
20260906123512 17 0.0 0.0 0.00 0.00 0.00 94 1019.4
20260906123004 17 0.0 0.0 0.00 0.00 0.00 94 1019.0
20260906122506 17 0.0 0.0 0.00 0.00 0.00 93 1019.0
20260906122008 18 0.0 0.0 0.00 0.00 0.00 93 1019.0
20260906121511 18 0.0 0.0 0.00 0.00 0.00 92 1019.0
20260906121013 18 0.0 0.0 0.00 0.00 0.00 91 1019.0
20260906120506 18 0.0 0.0 0.00 0.00 0.00 91 1019.0
20260906120008 18 0.0 0.0 0.00 0.00 0.00 91 1019.0
20260906115509 18 0.0 0.0 0.00 0.00 0.00 90 1019.0
20260906115012 18 0.0 0.0 0.00 0.00 0.00 89 1019.4
20260906114505 18 0.0 0.0 0.00 0.00 0.00 88 1019.4
20260906114007 19 0.0 0.0 0.00 0.00 0.00 87 1019.0
20260906113509 19 0.0 0.0 0.00 0.00 0.00 86 1019.0
20260906113012 19 0.0 0.0 0.00 0.00 0.00 85 1019.4
20260906112504 20 0.0 0.0 0.00 0.00 0.00 85 1019.0
20260906112006 20 0.0 0.0 0.00 0.00 0.00 85 1019.0
20260906111508 20 0.0 0.0 0.00 0.00 0.00 84 1019.0
20260906111011 20 0.0 0.0 0.00 0.00 0.00 82 1019.0
20260906110513 20 0.0 0.0 0.00 0.00 0.00 83 1019.0
20260906110005 20 0.0 0.0 0.00 0.00 0.00 84 1019.0
20260906105507 20 0.0 0.0 0.00 0.00 0.00 83 1019.0
20260906105009 19 0.0 0.0 0.00 0.00 0.00 84 1019.0
20260906104512 19 0.0 0.0 0.00 0.00 0.00 84 1019.0
20260906104004 20 0.0 0.0 0.00 0.00 0.00 83 1018.7
20260906103507 20 0.0 0.0 0.00 0.00 0.00 82 1018.7
20260906103008 20 0.0 0.0 0.00 0.00 0.00 82 1018.7
20260906102512 20 0.0 0.0 0.00 0.00 0.00 81 1019.0
20260906102013 20 0.0 0.0 0.00 0.00 0.00 79 1019.0
20260906101507 20 0.0 0.0 0.00 0.00 0.00 78 1018.7
20260906101008 21 0.0 0.0 0.00 0.00 0.00 77 1018.7
20260906100511 21 0.0 0.0 0.00 0.00 0.00 76 1018.7
20260906100013 21 0.0 0.0 0.00 0.00 0.00 77 1018.3
20260906095505 21 0.0 0.0 0.00 0.00 0.00 78 1018.3
20260906095007 21 0.0 0.0 0.00 0.00 0.00 77 1018.7
20260906094509 21 0.0 0.0 0.00 0.00 0.00 77 1018.7
20260906094012 21 0.0 0.0 0.00 0.00 0.00 77 1018.7
20260906093504 20 0.0 0.0 0.00 0.00 0.00 79 1018.7
20260906093007 20 0.0 0.0 0.00 0.00 0.00 80 1018.7
20260906092508 21 0.0 0.0 0.00 0.00 0.00 78 1018.3
20260906092011 21 0.0 0.0 0.00 0.00 0.00 74 1018.3
20260906091513 21 0.0 0.0 0.00 0.00 0.00 75 1017.9
20260906091006 21 0.0 0.0 0.00 0.00 0.00 76 1017.9
20260906090508 21 0.0 0.0 0.00 0.00 0.00 77 1017.9
20260906090009 21 0.0 0.0 0.00 0.00 0.00 79 1017.9
20260906085512 21 0.0 0.0 0.00 0.00 0.00 79 1018.3
20260906085004 20 0.0 0.0 0.00 0.00 0.00 80 1018.3
20260906084507 21 0.0 0.0 0.00 0.00 0.00 80 1018.3
20260906084009 21 0.0 0.0 0.00 0.00 0.00 80 1018.3
20260906083512 20 0.0 0.0 0.00 0.00 0.00 80 1017.9
20260906083003 20 0.0 0.0 0.00 0.00 0.00 80 1018.3
20260906082505 20 0.0 0.0 0.00 0.00 0.00 80 1018.3
20260906082008 21 0.0 0.0 0.00 0.00 0.00 79 1018.3
20260906081510 21 0.0 0.0 0.00 0.00 0.00 78 1018.3
20260906081013 21 0.0 0.0 0.00 0.00 0.00 77 1018.7
20260906080504 21 0.0 0.0 0.00 0.00 0.00 76 1018.7
20260906080007 21 0.0 0.0 0.00 0.00 0.00 76 1018.7
20260906075509 21 0.0 0.0 0.00 0.00 0.00 76 1018.7
20260906075012 21 0.0 0.0 0.00 0.00 0.00 76 1018.7
20260906074514 21 0.0 0.0 0.00 0.00 0.00 75 1018.3
20260906074007 21 0.0 0.0 0.00 0.00 0.00 74 1018.3
20260906073508 21 0.0 0.0 0.00 0.00 0.00 75 1018.3
20260906073010 21 0.0 0.0 0.00 0.00 0.00 76 1018.3
20260906072514 21 0.0 0.0 0.00 0.00 0.00 76 1018.3
20260906072005 21 0.0 0.0 0.00 0.00 0.00 76 1018.3
20260906071508 21 0.0 0.0 0.00 0.00 0.00 76 1018.3
20260906071010 21 0.0 0.0 0.00 0.00 0.00 75 1018.3
20260906070513 21 0.0 0.0 0.00 0.00 0.00 74 1018.3
20260906070004 21 0.0 0.0 0.00 0.00 0.00 74 1018.3
20260906065506 21 0.0 0.0 0.00 0.00 0.00 74 1017.9
20260906065009 21 0.0 0.0 0.00 0.00 0.00 75 1017.9
20260906064512 21 0.0 0.0 0.00 0.00 0.00 75 1017.9
20260906064004 21 0.0 0.0 0.00 0.00 0.00 75 1017.9
20260906063507 21 0.0 0.0 0.00 0.00 0.00 75 1017.9
20260906063008 21 0.0 0.0 0.00 0.00 0.00 75 1017.9
20260906062510 21 0.0 0.0 0.00 0.00 0.00 75 1017.9
20260906062013 21 0.0 0.0 0.00 0.00 0.00 75 1017.9
20260906061505 21 0.0 0.0 0.00 0.00 0.00 74 1017.9
20260906061008 22 0.0 0.0 0.00 0.00 0.00 72 1017.5
20260906060509 22 0.0 0.0 0.00 0.00 0.00 71 1017.5
20260906060013 22 0.0 0.0 0.00 0.00 0.00 70 1017.5
20260906055504 22 0.0 0.0 0.00 0.00 0.00 70 1017.5
20260906055007 22 0.0 0.0 0.00 0.00 0.00 70 1017.5
20260906054509 22 0.0 0.0 0.00 0.00 0.00 70 1017.5
20260906054012 22 0.0 0.0 0.00 0.00 0.00 69 1017.5
20260906053504 22 0.0 0.0 0.00 0.00 0.00 69 1017.5
20260906053006 22 0.0 0.0 0.00 0.00 0.00 69 1017.5
20260906052507 22 0.0 0.0 0.00 0.00 0.00 69 1017.5
20260906052010 22 0.0 0.0 0.00 0.00 0.00 69 1017.5
20260906051513 22 0.0 0.0 0.00 0.00 0.00 69 1017.5
20260906051005 23 0.0 0.0 0.00 0.00 0.00 67 1017.1
20260906050508 23 0.0 0.0 0.00 0.00 0.00 67 1017.1
20260906050009 23 0.0 0.0 0.00 0.00 0.00 66 1017.1
20260906045512 23 0.0 0.0 0.00 0.00 0.00 66 1017.1
20260906045004 23 0.0 0.0 0.00 0.00 0.00 66 1017.1
20260906044507 23 0.0 0.0 0.00 0.00 0.00 66 1017.1
20260906044009 23 0.0 0.0 0.00 0.00 0.00 66 1017.1
20260906043003 23 0.0 0.0 0.00 0.00 0.00 67 1017.5
20260906042506 23 0.0 0.0 0.00 0.00 0.00 66 1017.5
20260906042008 23 0.0 0.0 0.00 0.00 0.00 65 1017.5
20260906041510 23 0.0 0.0 0.00 0.00 0.00 64 1017.5
20260906041013 23 0.0 0.0 0.00 0.00 0.00 64 1017.5
20260906040504 24 0.0 0.0 0.00 0.00 0.00 63 1017.9
20260906040008 24 0.0 0.0 0.00 0.00 0.00 62 1017.9
20260906035509 24 0.0 0.0 0.00 0.00 0.00 61 1017.9
20260906035012 25 0.0 0.0 0.00 0.00 0.00 61 1017.9
20260906034504 25 0.0 0.0 0.00 0.00 0.00 60 1017.9
20260906034007 25 0.0 0.0 0.00 0.00 0.00 60 1017.5
20260906033508 25 0.0 0.0 0.00 0.00 0.00 60 1017.5
20260906033010 24 0.0 0.0 0.00 0.00 0.00 61 1017.9
20260906032503 24 0.0 0.0 0.00 0.00 0.00 62 1017.9
20260906032006 25 0.0 0.0 0.00 0.00 0.00 62 1017.9
20260906031507 25 0.0 0.0 0.00 0.00 0.00 61 1017.9
20260906031010 25 0.0 0.0 0.00 0.00 0.00 61 1017.9
20260906030513 25 0.0 0.0 0.00 0.00 0.00 61 1017.5
20260906030004 25 0.0 0.0 0.00 0.00 0.00 60 1017.5
20260906025507 25 0.0 0.0 0.00 0.00 0.00 59 1017.1
20260906025009 25 0.0 0.0 0.00 0.00 0.00 59 1017.1
20260906024512 25 0.0 0.0 0.00 0.00 0.00 59 1017.1
20260906024004 26 0.0 0.0 0.00 0.00 0.00 58 1017.1
20260906023507 26 0.0 0.0 0.00 0.00 0.00 58 1017.1
20260906023009 26 0.0 0.0 0.00 0.00 0.00 57 1017.1
20260906022510 26 0.0 0.0 0.00 0.00 0.00 56 1017.1
20260906022013 26 0.0 0.0 0.00 0.00 0.00 56 1017.1
20260906021506 26 0.0 0.0 0.00 0.00 0.00 56 1017.1
20260906021008 27 0.0 0.0 0.00 0.00 0.00 55 1017.1
20260906020509 27 0.0 0.0 0.00 0.00 0.00 54 1017.1
20260906020013 27 0.0 0.0 0.00 0.00 0.00 53 1017.1
20260906015504 27 0.0 0.0 0.00 0.00 0.00 52 1017.1
20260906015007 27 0.0 0.0 0.00 0.00 0.00 52 1017.1
20260906014509 28 0.0 0.0 0.00 0.00 0.00 51 1016.7
20260906014012 28 0.0 0.0 0.00 0.00 0.00 50 1016.7
20260906013504 28 0.0 0.0 0.00 0.00 0.00 50 1016.7
20260906013006 28 0.0 0.0 0.00 0.00 0.00 49 1016.3
20260906012508 28 0.0 0.0 0.00 0.00 0.00 48 1016.3
20260906012010 28 0.0 0.0 0.00 0.00 0.00 48 1016.3
20260906011513 29 0.0 0.0 0.00 0.00 0.00 47 1016.3
20260906011006 29 0.0 0.0 0.00 0.00 0.00 46 1016.3
20260906010508 29 0.0 0.0 0.00 0.00 0.00 46 1015.9
20260906010009 29 0.0 0.0 0.00 0.00 0.00 45 1015.9
20260906005512 30 0.0 0.0 0.00 0.00 0.00 45 1015.9
20260906005005 30 0.0 0.0 0.00 0.00 0.00 44 1015.9
20260906004507 30 0.0 0.0 0.00 0.00 0.00 44 1015.9
20260906004009 31 0.0 0.0 0.00 0.00 0.00 43 1015.9
20260906003512 31 0.0 0.0 0.00 0.00 0.00 42 1015.5
20260906003013 31 0.0 0.0 0.00 0.00 0.00 41 1015.5
20260906002507 31 0.0 0.0 0.00 0.00 0.00 41 1015.5
20260906002008 32 0.0 0.0 0.00 0.00 0.00 41 1015.1
20260906001511 32 0.0 0.0 0.00 0.00 0.00 41 1015.1
20260906001013 32 0.0 0.0 0.00 0.00 0.00 41 1015.1
20260906000506 32 0.0 0.0 0.00 0.00 0.00 39 1015.1
20260906000008 32 0.0 0.0 0.00 0.00 0.00 39 1015.5
20260905235510 32 0.0 0.0 0.00 0.00 0.00 38 1015.5
20260905235012 32 0.0 0.0 0.00 0.00 0.00 38 1015.5
20260905234504 33 0.0 0.0 0.00 0.00 0.00 37 1015.5
20260905234007 33 0.0 0.0 0.00 0.00 0.00 38 1015.5
20260905233509 33 0.0 0.0 0.00 0.00 0.00 38 1015.5
20260905233012 33 0.0 0.0 0.00 0.00 0.00 39 1015.5
20260905232503 33 0.0 0.0 0.00 0.00 0.00 38 1015.5
20260905232005 33 0.0 0.0 0.00 0.00 0.00 38 1015.5
20260905231508 33 0.0 0.0 0.00 0.00 0.00 38 1015.5
20260905231010 33 0.0 0.0 0.00 0.00 0.00 37 1015.1
20260905230513 33 0.0 0.0 0.00 0.00 0.00 37 1015.5
20260905230006 33 0.0 0.0 0.00 0.00 0.00 37 1015.5
20260905225507 33 0.0 0.0 0.00 0.00 0.00 37 1015.1
20260905225009 33 0.0 0.0 0.00 0.00 0.00 36 1015.1
20260905224512 33 0.0 0.0 0.00 0.00 0.00 37 1015.1
20260905224004 34 0.0 0.0 0.00 0.00 0.00 36 1015.1
20260905223507 33 0.0 0.0 0.00 0.00 0.00 35 1015.1
20260905223009 33 0.0 0.0 0.00 0.00 0.00 35 1015.1
20260905222511 33 0.0 0.0 0.00 0.00 0.00 37 1015.1
20260905222013 33 0.0 0.0 0.00 0.00 0.00 37 1015.1
20260905221506 33 0.0 0.0 0.00 0.00 0.00 37 1015.1
20260905221008 33 0.0 0.0 0.00 0.00 0.00 37 1015.1
20260905220511 33 0.0 0.0 0.00 0.00 0.00 37 1015.1
20260905220013 33 0.0 0.0 0.00 0.00 0.00 37 1015.1
20260905215505 33 0.0 0.0 0.00 0.00 0.00 38 1015.5
20260905215007 33 0.0 0.0 0.00 0.00 0.00 38 1015.5
20260905214510 33 0.0 0.0 0.00 0.00 0.00 38 1015.5
20260905214012 33 0.0 0.0 0.00 0.00 0.00 38 1015.5
20260905213506 33 0.0 0.0 0.00 0.00 0.00 38 1015.5
20260905213006 33 0.0 0.0 0.00 0.00 0.00 37 1015.5
20260905212510 34 0.0 0.0 0.00 0.00 0.00 38 1015.9
20260905212011 34 0.0 0.0 0.00 0.00 0.00 38 1015.9
20260905211513 34 0.0 0.0 0.00 0.00 0.00 38 1015.9
20260905211006 34 0.0 0.0 0.00 0.00 0.00 37 1015.9
20260905210508 34 0.0 0.0 0.00 0.00 0.00 37 1015.9
20260905210011 34 0.0 0.0 0.00 0.00 0.00 37 1015.9
20260905205512 33 0.0 0.0 0.00 0.00 0.00 37 1015.9
20260905205005 34 0.0 0.0 0.00 0.00 0.00 37 1016.3